Location: México DF
(19.4326°N, 99.1332°W)
Time: 20:49:15
(UTC+00:00)

ISS - Pass Details

Date: 09 September 2024
Orbit: 413 x 423 km, 51.6° (Epoch: 19 September)

Event Time Altitude Azimuth Distance (km) Brightness Sun altitude
Exits shadow 12:04:39 - 302° (WNW) 2,318 -0.5 -5.1°
Reaches altitude 10° 12:06:55 10° 287° (WNW) 1,507 -1.5 -4.6°
Maximum altitude 12:09:34 21° 235° (SW) 994 -2.4 -4.0°
Drops below altitude 10° 12:12:14 10° 183° (S) 1,503 -1.0 -3.4°
Sets 12:14:38 0° 167° (SSE) 2,364 0.2 -2.8°
